HELLAS-SAT 3

Last updated on March 8, 2021, 6:42 a.m. UTC

1 42814U 17040A   21066.83868914  .00000133  00000-0  00000-0 0  9990
2 42814   0.0602  36.7436 0005036 327.8008 142.1113  1.00273653 13510
UTC
Height (km)
Latitude
Longitude
Inclination
Orbital Period
UTC large
Height (km)
Speed (km/s)
/
Latitude / Longitude
Inclination (degrees)
Orbital Period (minutes)
Azimuth
Elevation
Range (km)
Doppler Factor
iOS Compass Heading
iOS Angle

Next 30 passes for location: Hong Kong

Rise time Rise Azimuth (degrees) Set time Set Azimuth (degrees) Duration Max altitude (degrees)

No matching passes for this satellites